Regional Weather Roundup
Issued by NWS Goodland, KS

Home | Current Version | Previous Version | Graphics & Text | Print | Product List | Glossary On
Versions: 1 2 3 4 5 6 7 8 9 10 11 12 13 14 15 16 17 18 19 20 21 22 23 24 25 26 27 28 29 30 31 32 33 34 35 36 37 38 39 40 41 42 43 44 45 46 47 48 49 50
928
ASUS43 KGLD 200708
RWRGLD

GOODLAND FORECAST AREA HOURLY WEATHER ROUNDUP
NATIONAL WEATHER SERVICE GOODLAND KS
1200 AM MST MON FEB 20 2017

...OFFICIAL OBSERVATIONS...

CITY           SKY/WX    TMP DP  RH WIND       PRES   REMARKS
GOODLAND KS    CLEAR     48  33  56 S13       29.66R
HILL CITY KS   CLOUDY    55  53  93 S3        29.70S
IMPERIAL NEB   PTCLDY    50  31  48 SE10      29.64F
MCCOOK NEB     CLOUDY    52  46  80 SW6       29.67R
AKRON CO       PTCLDY    46  34  62 NW26      29.71R
BURLINGTON CO  CLEAR     46  32  58 S15       29.68R
LIMON CO       CLOUDY    43  34  70 NW18G26   29.73R
$$

...UNOFFICIAL OBSERVATIONS...

CITY           SKY/WX    TMP DP  RH WIND       PRES   REMARKS
LENORA KS        N/A     52  32  46 S9          N/A
NORTON KS      CLEAR     54  48  82 S9        29.67
SHARON SPRINGS   N/A     46  36  67 S12         N/A
TRENTON NEB      N/A     49  32  52 SW5         N/A
KIT CARSON CO    N/A     39  31  72 MISG        N/A
YUMA CO        FAIR      46  32  57 NW18G24   29.65R
$$




USA.gov is the U.S. government's official web portal to all federal, state and local government web resources and services.